Regional Weather Roundup
Issued by NWS

Home | Current Version | Previous Version | Text Only | Print | Product List | Glossary On
Versions: 1 2 3 4 5 6 7 8 9 10 11 12 13 14 15 16 17 18 19 20 21 22 23 24 25
000
ASUS45 KCYS 291610
RWRWY

WYOMING REGIONAL WEATHER ROUNDUP
NATIONAL WEATHER SERVICE CHEYENNE WY
1000 AM MDT THU JUN 29 2017

NOTE:  "FAIR" INDICATES FEW OR NO CLOUDS BELOW 12,000 FEET
WITH NO SIGNIFICANT WEATHER AND/OR OBSTRUCTIONS TO VISIBILITY.

WYZ001-291700-
YELLOWSTONE NATIONAL PARK

CITY           SKY/WX    TMP DP  RH WIND       PRES   REMARKS
LK YELLOWSTONE   N/A     44  42  93 CALM      30.21R
W YELLOWSTONE  NOT AVBL

$$
WYZ002>013-054>058-071-098>099-291700-
NORTHERN WYOMING

CITY           SKY/WX    TMP DP  RH WIND       PRES   REMARKS
JACKSON        MOSUNNY   52  43  71 CALM      30.14S
CODY           FAIR      58  46  64 NE8       30.10R
GREYBULL       FAIR      61  49  64 NW6       30.03R
WORLAND        FAIR      62  49  62 VRB3      30.03R
SHERIDAN       FAIR      64  45  49 NW22G29   30.03R
BUFFALO        FAIR      63  43  48 N25G36    30.03R
GILLETTE       FAIR      65  47  52 NW13      30.00R
NEWCASTLE      FAIR      63  39  42 N20G33    29.97R

$$
WYZ014>020-022>026-101>103-291700-
CENTRAL WYOMING

CITY           SKY/WX    TMP DP  RH WIND       PRES   REMARKS
BIG PINEY      FAIR      56  38  50 S3        30.14S
PINEDALE       FAIR      55  37  50 MISG      30.15S
DUBOIS         PTSUNNY   55  34  44 CALM      30.12R
LANDER         FAIR      63  38  39 N12       30.07R
RIVERTON       FAIR      62  40  44 E8        30.07R
CASPER         FAIR      68  37  32 N9        30.05R
DOUGLAS        FAIR      66  45  46 N5        30.03S

$$
WYZ021-027>030-104>119-291700-
SOUTHERN WYOMING

CITY           SKY/WX    TMP DP  RH WIND       PRES   REMARKS
EVANSTON       FAIR      63  24  22 W13G23    30.17R
KEMMERER         N/A     61  21  21 W18       30.15S
FORT BRIDGER   FAIR      67  17  14 NW21G29   30.18R
ROCK SPRINGS   FAIR      62  36  37 VRB6      30.12R
DIXON          FAIR      67  33  27 W6        30.14S
RAWLINS        FAIR      66  34  30 W13G21    30.11S
SARATOGA       FAIR      68  23  18 W14G22    30.13S
LARAMIE        FAIR      66  21  18 N7        30.11S
CHEYENNE       FAIR      66  43  43 NE13      30.06R
TORRINGTON     FAIR      69  45  41 N15G23    29.97F
PINE BLUFFS    FAIR      66  43  42 N7        30.03S

$$




USA.gov is the U.S. government's official web portal to all federal, state and local government web resources and services.